Time,TemperatureF,DewpointF,PressureIn,WindDirection,WindDirectionDegrees,WindSpeedMPH,WindSpeedGustMPH,Humidity,HourlyPrecipIn,Conditions,Clouds,dailyrainin,SolarRadiationWatts/m^2,SoftwareType,DateUTC
2015-06-03 00:02:00,45.2,41.9,30.06,SSE,165,4.0,4.0,88,0.00,,,0.00,0,Wunderground v.1.15,2015-06-03 05:02:00,
2015-06-03 00:12:00,45.2,41.9,30.07,SSE,158,3.0,4.0,88,0.00,,,0.00,0,Wunderground v.1.15,2015-06-03 05:12:00,
2015-06-03 00:22:00,45.5,41.9,30.06,SSE,158,4.0,4.0,87,0.00,,,0.00,0,Wunderground v.1.15,2015-06-03 05:22:00,
2015-06-03 00:32:00,45.7,41.8,30.06,SSE,162,4.0,4.0,86,0.00,,,0.00,0,Wunderground v.1.15,2015-06-03 05:32:00,
2015-06-03 00:42:00,46.1,41.5,30.06,SSE,164,4.0,4.0,84,0.00,,,0.00,0,Wunderground v.1.15,2015-06-03 05:42:00,
2015-06-03 00:52:00,45.7,41.4,30.06,SSE,164,2.0,2.0,85,0.00,,,0.00,0,Wunderground v.1.15,2015-06-03 05:52:00,
2015-06-03 01:02:00,45.2,41.0,30.06,SSE,164,2.0,2.0,85,0.00,,,0.00,0,Wunderground v.1.15,2015-06-03 06:02:00,
2015-06-03 01:12:00,45.4,40.5,30.05,SSE,164,2.0,2.0,83,0.00,,,0.00,0,Wunderground v.1.15,2015-06-03 06:12:00,
2015-06-03 01:22:00,45.8,40.6,30.05,South,169,2.0,3.0,82,0.00,,,0.00,0,Wunderground v.1.15,2015-06-03 06:22:00,
2015-06-03 01:32:00,46.1,40.3,30.05,South,181,3.0,3.0,80,0.00,,,0.00,0,Wunderground v.1.15,2015-06-03 06:32:00,
2015-06-03 01:42:00,46.5,40.0,30.05,South,182,4.0,4.0,78,0.00,,,0.00,0,Wunderground v.1.15,2015-06-03 06:42:00,
2015-06-03 01:52:00,47.0,39.5,30.04,South,184,5.0,5.0,75,0.00,,,0.00,0,Wunderground v.1.15,2015-06-03 06:52:00,
2015-06-03 02:02:00,47.3,39.1,30.04,South,184,4.0,4.0,73,0.00,,,0.00,0,Wunderground v.1.15,2015-06-03 07:02:00,
2015-06-03 02:12:00,47.7,38.8,30.04,South,184,4.0,4.0,71,0.00,,,0.00,0,Wunderground v.1.15,2015-06-03 07:12:00,
2015-06-03 02:22:00,47.4,38.8,30.04,South,184,3.0,3.0,72,0.00,,,0.00,0,Wunderground v.1.15,2015-06-03 07:22:00,
2015-06-03 02:32:00,47.4,38.8,30.04,South,184,3.0,3.0,72,0.00,,,0.00,0,Wunderground v.1.15,2015-06-03 07:32:00,
2015-06-03 02:42:00,47.4,38.5,30.04,South,184,4.0,4.0,71,0.00,,,0.00,0,Wunderground v.1.15,2015-06-03 07:42:00,
2015-06-03 02:52:00,47.6,38.7,30.03,South,179,3.0,4.0,71,0.00,,,0.00,0,Wunderground v.1.15,2015-06-03 07:52:00,
2015-06-03 03:02:00,47.9,38.6,30.03,South,179,2.0,2.0,70,0.00,,,0.00,0,Wunderground v.1.15,2015-06-03 08:02:00,
2015-06-03 03:12:00,48.2,38.9,30.03,South,171,3.0,5.0,70,0.00,,,0.00,0,Wunderground v.1.15,2015-06-03 08:12:00,
2015-06-03 03:22:00,48.2,39.2,30.03,South,179,3.0,5.0,71,0.00,,,0.00,0,Wunderground v.1.15,2015-06-03 08:22:00,
2015-06-03 03:32:00,48.2,39.2,30.03,South,178,3.0,3.0,71,0.00,,,0.00,0,Wunderground v.1.15,2015-06-03 08:32:00,
2015-06-03 03:42:00,48.2,39.2,30.03,South,178,3.0,3.0,71,0.00,,,0.00,0,Wunderground v.1.15,2015-06-03 08:42:00,
2015-06-03 03:52:00,48.0,39.4,30.03,South,179,3.0,3.0,72,0.00,,,0.00,0,Wunderground v.1.15,2015-06-03 08:52:00,
2015-06-03 04:02:00,48.0,39.8,30.03,South,171,4.0,4.0,73,0.00,,,0.00,0,Wunderground v.1.15,2015-06-03 09:02:00,
2015-06-03 04:12:00,47.9,40.0,30.03,South,179,2.0,2.0,74,0.00,,,0.00,0,Wunderground v.1.15,2015-06-03 09:12:00,
2015-06-03 04:22:00,48.0,40.1,30.03,South,179,2.0,2.0,74,0.00,,,0.00,0,Wunderground v.1.15,2015-06-03 09:22:00,
2015-06-03 04:32:00,48.2,40.3,30.03,South,178,2.0,2.0,74,0.00,,,0.00,0,Wunderground v.1.15,2015-06-03 09:32:00,
2015-06-03 04:42:00,48.3,40.4,30.03,South,178,2.0,2.0,74,0.00,,,0.00,0,Wunderground v.1.15,2015-06-03 09:42:00,
2015-06-03 04:52:00,48.5,40.9,30.03,South,178,2.0,2.0,75,0.00,,,0.00,0,Wunderground v.1.15,2015-06-03 09:52:00,
2015-06-03 05:02:00,48.6,41.0,30.03,South,178,1.0,3.0,75,0.00,,,0.00,0,Wunderground v.1.15,2015-06-03 10:02:00,
2015-06-03 05:12:00,48.9,41.0,30.03,South,178,2.0,5.0,74,0.00,,,0.00,0,Wunderground v.1.15,2015-06-03 10:12:00,
2015-06-03 05:22:00,49.1,41.2,30.04,South,178,2.0,2.0,74,0.00,,,0.00,0,Wunderground v.1.15,2015-06-03 10:22:00,
2015-06-03 05:32:00,49.2,41.6,30.04,South,179,3.0,5.0,75,0.00,,,0.00,7,Wunderground v.1.15,2015-06-03 10:32:00,
2015-06-03 05:42:00,49.5,42.2,30.04,South,178,3.0,3.0,76,0.00,,,0.00,30,Wunderground v.1.15,2015-06-03 10:42:00,
2015-06-03 05:52:00,50.2,42.9,30.04,SSW,196,5.0,5.0,76,0.00,,,0.00,51,Wunderground v.1.15,2015-06-03 10:52:00,
2015-06-03 06:02:00,51.1,43.8,30.04,South,191,5.0,5.0,76,0.00,,,0.00,86,Wunderground v.1.15,2015-06-03 11:02:00,
2015-06-03 06:12:00,51.9,44.6,30.03,South,191,4.0,9.0,76,0.00,,,0.00,116,Wunderground v.1.15,2015-06-03 11:12:00,
2015-06-03 06:22:00,52.9,45.2,30.03,SSW,195,6.0,6.0,75,0.00,,,0.00,146,Wunderground v.1.15,2015-06-03 11:22:00,
2015-06-03 06:32:00,53.9,46.2,30.03,SSW,200,6.0,6.0,75,0.00,,,0.00,172,Wunderground v.1.15,2015-06-03 11:32:00,
2015-06-03 06:42:00,55.3,46.8,30.03,SSW,208,7.0,11.0,73,0.00,,,0.00,201,Wunderground v.1.15,2015-06-03 11:42:00,
2015-06-03 06:52:00,56.2,47.3,30.03,SSW,199,8.0,10.0,72,0.00,,,0.00,222,Wunderground v.1.15,2015-06-03 11:52:00,
2015-06-03 07:02:00,56.9,47.2,30.03,SSW,196,8.0,8.0,70,0.00,,,0.00,236,Wunderground v.1.15,2015-06-03 12:02:00,
2015-06-03 07:12:00,57.0,47.7,30.04,SSW,193,11.0,11.0,71,0.00,,,0.00,239,Wunderground v.1.15,2015-06-03 12:12:00,
2015-06-03 07:22:00,57.6,48.3,30.04,SSW,210,7.0,7.0,71,0.00,,,0.00,292,Wunderground v.1.15,2015-06-03 12:22:00,
2015-06-03 07:32:00,58.0,48.3,30.04,South,185,8.0,8.0,70,0.00,,,0.00,318,Wunderground v.1.15,2015-06-03 12:32:00,
2015-06-03 07:42:00,58.3,48.6,30.04,SSE,161,9.0,11.0,70,0.00,,,0.00,345,Wunderground v.1.15,2015-06-03 12:42:00,
2015-06-03 07:52:00,58.1,48.7,30.04,SSW,199,7.0,7.0,71,0.00,,,0.00,371,Wunderground v.1.15,2015-06-03 12:52:00,
2015-06-03 08:02:00,57.6,48.3,30.04,South,181,7.0,8.0,71,0.00,,,0.00,401,Wunderground v.1.15,2015-06-03 13:02:00,
2015-06-03 08:12:00,58.3,48.9,30.05,South,191,7.0,8.0,71,0.00,,,0.00,424,Wunderground v.1.15,2015-06-03 13:12:00,
2015-06-03 08:22:00,58.6,48.8,30.05,SSW,195,8.0,8.0,70,0.00,,,0.00,426,Wunderground v.1.15,2015-06-03 13:22:00,
2015-06-03 08:32:00,58.6,49.2,30.05,South,176,7.0,7.0,71,0.00,,,0.00,457,Wunderground v.1.15,2015-06-03 13:32:00,
2015-06-03 08:42:00,58.0,48.6,30.05,SSE,162,7.0,7.0,71,0.00,,,0.00,466,Wunderground v.1.15,2015-06-03 13:42:00,
2015-06-03 08:52:00,58.1,48.4,30.05,SSW,193,7.0,7.0,70,0.00,,,0.00,509,Wunderground v.1.15,2015-06-03 13:52:00,
2015-06-03 09:02:00,58.3,48.6,30.05,SSW,193,8.0,8.0,70,0.00,,,0.00,503,Wunderground v.1.15,2015-06-03 14:02:00,
2015-06-03 09:12:00,58.7,48.6,30.05,South,171,7.0,7.0,69,0.00,,,0.00,537,Wunderground v.1.15,2015-06-03 14:12:00,
2015-06-03 09:22:00,59.0,48.8,30.05,SSW,195,6.0,6.0,69,0.00,,,0.00,586,Wunderground v.1.15,2015-06-03 14:22:00,
2015-06-03 09:32:00,59.2,49.0,30.05,SSW,195,6.0,6.0,69,0.00,,,0.00,607,Wunderground v.1.15,2015-06-03 14:32:00,
2015-06-03 09:42:00,58.4,49.4,30.04,ESE,120,8.0,8.0,72,0.00,,,0.00,640,Wunderground v.1.15,2015-06-03 14:42:00,
2015-06-03 09:52:00,58.4,49.0,30.04,SE,136,8.0,8.0,71,0.00,,,0.00,667,Wunderground v.1.15,2015-06-03 14:52:00,
2015-06-03 10:02:00,59.0,50.4,30.04,South,172,8.0,10.0,73,0.00,,,0.00,688,Wunderground v.1.15,2015-06-03 15:02:00,
2015-06-03 10:12:00,59.9,50.8,30.04,SSW,198,9.0,9.0,72,0.00,,,0.00,718,Wunderground v.1.15,2015-06-03 15:12:00,
2015-06-03 10:22:00,60.1,50.7,30.04,SSW,193,12.0,12.0,71,0.00,,,0.00,737,Wunderground v.1.15,2015-06-03 15:22:00,
2015-06-03 10:32:00,60.5,51.0,30.04,SSW,193,12.0,14.0,71,0.00,,,0.00,758,Wunderground v.1.15,2015-06-03 15:32:00,
2015-06-03 10:42:00,61.3,52.2,30.04,SSW,196,11.0,11.0,72,0.00,,,0.00,769,Wunderground v.1.15,2015-06-03 15:42:00,
2015-06-03 10:52:00,61.6,51.3,30.04,SSE,157,11.0,11.0,69,0.00,,,0.00,792,Wunderground v.1.15,2015-06-03 15:52:00,
2015-06-03 11:02:00,62.3,52.0,30.04,South,174,10.0,14.0,69,0.00,,,0.00,806,Wunderground v.1.15,2015-06-03 16:02:00,
2015-06-03 11:12:00,62.0,51.7,30.03,SW,233,12.0,12.0,69,0.00,,,0.00,808,Wunderground v.1.15,2015-06-03 16:12:00,
2015-06-03 11:22:00,63.2,52.1,30.03,South,172,9.0,13.0,67,0.00,,,0.00,822,Wunderground v.1.15,2015-06-03 16:22:00,
2015-06-03 11:32:00,63.2,51.2,30.03,SSE,147,11.0,11.0,65,0.00,,,0.00,848,Wunderground v.1.15,2015-06-03 16:32:00,